Date,TemperatureHighF,TemperatureAvgF,TemperatureLowF,DewpointHighF,DewpointAvgF,DewpointLowF,HumidityHigh,HumidityAvg,HumidityLow,PressureMaxIn,PressureMinIn,WindSpeedMaxMPH,WindSpeedAvgMPH,GustSpeedMaxMPH,PrecipitationSumIn
2013-2-1,70.0,62.8,55.0,44.0,33.7,28.0,49,34,24,0.00,40.00,21,14,26,0.00
2013-2-2,68.0,63.6,59.0,40.0,32.1,28.0,48,32,24,0.00,40.00,23,16,30,0.00
2013-2-3,69.0,61.0,55.0,45.0,40.1,27.0,60,46,35,0.00,40.00,17,11,25,0.00
2013-2-4,68.0,60.5,52.0,48.0,38.5,24.0,68,46,27,0.00,40.00,17,9,25,0.00
2013-2-5,55.0,49.1,44.0,47.0,43.3,32.0,95,81,46,0.00,40.00,16,7,25,0.00
2013-2-6,61.0,50.1,44.0,46.0,43.8,41.0,95,80,53,0.00,40.00,11,6,18,2.82
2013-2-7,57.0,48.7,46.0,44.0,40.1,31.0,89,73,55,0.00,40.00,16,9,21,2.82
2013-2-8,46.0,41.0,37.0,41.0,34.3,30.0,91,77,63,0.00,40.00,25,12,39,0.00
2013-2-9,54.0,44.2,37.0,37.0,31.2,28.0,77,62,39,0.00,40.00,13,8,20,0.00
2013-2-10,50.0,43.7,37.0,38.0,34.2,31.0,85,70,56,0.00,40.00,18,8,23,0.00
2013-2-11,55.0,47.5,40.0,38.0,25.6,14.0,87,48,19,0.00,40.00,27,13,38,0.00
2013-2-12,60.0,50.5,39.0,28.0,20.4,8.0,47,32,15,0.00,40.00,16,9,21,0.00
2013-2-13,67.0,56.0,44.0,39.0,27.2,16.0,50,35,14,0.00,40.00,20,11,26,0.00
2013-2-14,69.0,63.6,54.0,28.0,21.3,17.0,35,20,14,0.00,40.00,28,20,42,0.00
2013-2-15,71.0,64.2,58.0,23.0,18.2,12.0,24,17,12,0.00,40.00,34,26,53,0.00
2013-2-16,73.0,65.2,61.0,22.0,14.7,9.0,16,14,10,0.00,40.00,27,17,38,0.00
2013-2-17,66.0,56.3,48.0,46.0,31.8,15.0,94,46,19,0.00,40.00,14,8,24,0.00
2013-2-18,60.0,48.9,43.0,45.0,43.2,41.0,94,82,53,0.00,40.00,15,8,22,0.00
2013-2-19,48.0,44.7,40.0,42.0,38.3,35.0,91,78,66,0.00,40.00,23,10,36,0.06
2013-2-20,56.0,44.5,36.0,35.0,25.2,18.0,84,48,31,0.00,40.00,15,8,23,0.03
2013-2-21,56.0,48.3,41.0,35.0,27.7,21.0,60,45,28,0.00,40.00,14,7,21,0.00
2013-2-22,60.0,50.3,42.0,36.0,27.4,20.0,62,43,21,0.00,40.00,16,11,23,0.00
2013-2-23,61.0,53.1,48.0,45.0,29.8,15.0,66,42,23,0.00,40.00,28,11,42,0.00
2013-2-24,57.0,51.3,45.0,25.0,9.5,0.0,41,20,11,0.00,40.00,35,22,53,0.00
2013-2-25,63.0,54.3,45.0,29.0,15.1,0.0,42,23,12,0.00,40.00,20,10,24,0.00
2013-2-26,65.0,58.4,51.0,28.0,18.1,10.0,40,22,13,0.00,40.00,31,20,44,0.00
2013-2-27,65.0,58.0,52.0,16.0,9.0,5.0,20,14,11,0.00,40.00,31,22,43,0.00
2013-2-28,72.0,62.7,55.0,22.0,13.0,9.0,21,14,10,0.00,40.00,21,16,31,0.00